Location: Arpaise
(41.0333°N, 14.7333°E)
Time: 08:14:30
(UTC+00:00)

Cosmos 1844 Rocket - Pass Details

Date: 05 July 2020
Orbit: 826 x 843 km, 71.0° (Epoch: 05 August)

Event Time Altitude Azimuth Distance (km) Brightness Sun altitude
Rises 19:24:07 0° 343° (NNW) 3,374 6.9 -8.2°
Reaches altitude 10° 19:26:45 10° 351° (N) 2,436 5.9 -8.5°
Maximum altitude 19:31:55 38° 59° (ENE) 1,253 3.5 -9.3°
Enters shadow 19:36:34 12° 124° (SE) 2,259 4.3 -9.9°
